Time,TemperatureF,DewpointF,PressureIn,WindDirection,WindDirectionDegrees,WindSpeedMPH,WindSpeedGustMPH,Humidity,HourlyPrecipIn,Conditions,Clouds,dailyrainin,SoftwareType,DateUTC
2013-09-12 00:04:00,70.0,52.0,30.02,ENE,75,0.0,1.0,53,0.00,,,0.00,meteohub,2013-09-12 05:04:00,
2013-09-12 00:09:00,69.6,51.8,30.02,ENE,69,0.0,2.0,53,0.00,,,0.00,meteohub,2013-09-12 05:09:00,
2013-09-12 00:14:00,69.4,51.6,30.02,NE,45,0.0,2.0,53,0.00,,,0.00,meteohub,2013-09-12 05:14:00,
2013-09-12 00:19:00,69.4,51.6,30.02,NE,40,0.0,3.0,53,0.00,,,0.00,meteohub,2013-09-12 05:19:00,
2013-09-12 00:24:00,69.3,52.0,30.02,NE,37,0.0,3.0,54,0.00,,,0.00,meteohub,2013-09-12 05:24:00,
2013-09-12 00:30:00,69.1,51.8,30.02,NE,37,0.0,3.0,54,0.00,,,0.00,meteohub,2013-09-12 05:30:00,
2013-09-12 00:35:00,69.1,51.8,30.02,NE,37,0.0,2.0,54,0.00,,,0.00,meteohub,2013-09-12 05:35:00,
2013-09-12 00:40:00,68.7,51.4,30.02,NE,37,0.0,2.0,54,0.00,,,0.00,meteohub,2013-09-12 05:40:00,
2013-09-12 00:45:00,68.7,52.0,30.02,NE,37,0.0,1.0,55,0.00,,,0.00,meteohub,2013-09-12 05:45:00,
2013-09-12 00:50:00,68.5,51.8,30.02,NE,37,1.0,1.0,55,0.00,,,0.00,meteohub,2013-09-12 05:50:00,
2013-09-12 00:55:00,68.4,52.0,30.02,NE,37,0.0,2.0,56,0.00,,,0.00,meteohub,2013-09-12 05:55:00,
2013-09-12 01:00:00,68.2,51.8,30.02,NE,37,0.0,2.0,56,0.00,,,0.00,meteohub,2013-09-12 06:00:00,
2013-09-12 01:05:00,67.8,51.6,30.03,NE,37,0.0,1.0,56,0.00,,,0.00,meteohub,2013-09-12 06:05:00,
2013-09-12 01:10:00,67.8,52.0,30.03,NE,42,0.0,1.0,57,0.00,,,0.00,meteohub,2013-09-12 06:10:00,
2013-09-12 01:15:00,67.6,51.8,30.03,NE,42,1.0,1.0,57,0.00,,,0.00,meteohub,2013-09-12 06:15:00,
2013-09-12 01:20:00,67.5,51.6,30.03,NE,42,0.0,1.0,57,0.00,,,0.00,meteohub,2013-09-12 06:20:00,
2013-09-12 01:25:00,67.3,51.4,30.04,NE,41,0.0,2.0,57,0.00,,,0.00,meteohub,2013-09-12 06:25:00,
2013-09-12 01:31:00,67.1,51.4,30.04,ENE,69,2.0,3.0,57,0.00,,,0.00,meteohub,2013-09-12 06:31:00,
2013-09-12 01:36:00,66.9,51.6,30.04,ENE,78,2.0,3.0,58,0.00,,,0.00,meteohub,2013-09-12 06:36:00,
2013-09-12 01:41:00,66.7,51.4,30.04,East,83,0.0,3.0,58,0.00,,,0.00,meteohub,2013-09-12 06:41:00,
2013-09-12 01:46:00,66.6,51.8,30.04,East,83,1.0,3.0,59,0.00,,,0.00,meteohub,2013-09-12 06:46:00,
2013-09-12 01:51:00,66.4,51.6,30.04,East,83,1.0,3.0,59,0.00,,,0.00,meteohub,2013-09-12 06:51:00,
2013-09-12 01:56:00,66.2,51.4,30.04,East,83,0.0,3.0,59,0.00,,,0.00,meteohub,2013-09-12 06:56:00,
2013-09-12 02:01:00,66.0,51.3,30.05,East,79,0.0,4.0,59,0.00,,,0.00,meteohub,2013-09-12 07:01:00,
2013-09-12 02:06:00,65.8,51.6,30.05,East,80,0.0,4.0,60,0.00,,,0.00,meteohub,2013-09-12 07:06:00,
2013-09-12 02:11:00,65.8,51.6,30.05,East,80,0.0,4.0,60,0.00,,,0.00,meteohub,2013-09-12 07:11:00,
2013-09-12 02:16:00,65.7,51.4,30.05,East,79,0.0,2.0,60,0.00,,,0.00,meteohub,2013-09-12 07:16:00,
2013-09-12 02:21:00,65.5,51.6,30.05,ENE,78,0.0,1.0,61,0.00,,,0.00,meteohub,2013-09-12 07:21:00,
2013-09-12 02:26:00,65.1,51.3,30.05,ENE,78,0.0,2.0,61,0.00,,,0.00,meteohub,2013-09-12 07:26:00,
2013-09-12 02:31:00,65.1,51.8,30.05,ENE,78,0.0,2.0,62,0.00,,,0.00,meteohub,2013-09-12 07:31:00,
2013-09-12 02:36:00,64.9,51.6,30.05,ENE,78,0.0,3.0,62,0.00,,,0.00,meteohub,2013-09-12 07:36:00,
2013-09-12 02:41:00,64.8,51.4,30.06,ENE,78,0.0,3.0,62,0.00,,,0.00,meteohub,2013-09-12 07:41:00,
2013-09-12 02:47:00,64.6,51.6,30.06,ENE,78,0.0,3.0,63,0.00,,,0.00,meteohub,2013-09-12 07:47:00,
2013-09-12 02:52:00,64.2,51.4,30.06,ENE,78,1.0,2.0,63,0.00,,,0.00,meteohub,2013-09-12 07:52:00,
2013-09-12 02:57:00,64.0,51.6,30.06,ENE,78,0.0,2.0,64,0.00,,,0.00,meteohub,2013-09-12 07:57:00,
2013-09-12 03:02:00,64.0,51.6,30.06,ENE,78,0.0,2.0,64,0.00,,,0.00,meteohub,2013-09-12 08:02:00,
2013-09-12 03:07:00,63.9,51.4,30.06,ENE,78,1.0,2.0,64,0.00,,,0.00,meteohub,2013-09-12 08:07:00,
2013-09-12 03:12:00,63.7,51.6,30.06,ENE,78,0.0,2.0,65,0.00,,,0.00,meteohub,2013-09-12 08:12:00,
2013-09-12 03:17:00,63.3,51.4,30.06,ENE,78,0.0,2.0,65,0.00,,,0.00,meteohub,2013-09-12 08:17:00,
2013-09-12 03:22:00,63.3,51.8,30.07,ENE,78,0.0,2.0,66,0.00,,,0.00,meteohub,2013-09-12 08:22:00,
2013-09-12 03:27:00,63.1,51.6,30.07,ENE,78,0.0,2.0,66,0.00,,,0.00,meteohub,2013-09-12 08:27:00,
2013-09-12 03:32:00,63.0,51.4,30.07,ENE,78,0.0,2.0,66,0.00,,,0.00,meteohub,2013-09-12 08:32:00,
2013-09-12 03:37:00,62.8,51.6,30.07,ENE,78,0.0,2.0,67,0.00,,,0.00,meteohub,2013-09-12 08:37:00,
2013-09-12 03:42:00,62.6,51.4,30.07,ENE,78,0.0,2.0,67,0.00,,,0.00,meteohub,2013-09-12 08:42:00,
2013-09-12 03:47:00,62.4,51.3,30.07,ENE,78,0.0,2.0,67,0.00,,,0.00,meteohub,2013-09-12 08:47:00,
2013-09-12 03:52:00,62.2,51.6,30.07,ENE,78,0.0,1.0,68,0.00,,,0.00,meteohub,2013-09-12 08:52:00,
2013-09-12 03:57:00,62.2,51.6,30.07,ENE,78,0.0,1.0,68,0.00,,,0.00,meteohub,2013-09-12 08:57:00,
2013-09-12 04:02:00,62.1,51.4,30.08,ENE,78,0.0,1.0,68,0.00,,,0.00,meteohub,2013-09-12 09:02:00,
2013-09-12 04:07:00,61.9,51.6,30.08,ENE,78,0.0,1.0,69,0.00,,,0.00,meteohub,2013-09-12 09:07:00,
2013-09-12 04:12:00,61.7,51.4,30.08,ENE,78,0.0,0.0,69,0.00,,,0.00,meteohub,2013-09-12 09:12:00,
2013-09-12 04:17:00,61.5,51.6,30.08,ENE,78,0.0,1.0,70,0.00,,,0.00,meteohub,2013-09-12 09:17:00,
2013-09-12 04:22:00,61.3,51.4,30.08,ENE,78,0.0,1.0,70,0.00,,,0.00,meteohub,2013-09-12 09:22:00,
2013-09-12 04:27:00,61.2,51.6,30.08,ENE,78,0.0,1.0,71,0.00,,,0.00,meteohub,2013-09-12 09:27:00,
2013-09-12 04:32:00,61.0,51.4,30.08,ENE,78,0.0,1.0,71,0.00,,,0.00,meteohub,2013-09-12 09:32:00,
2013-09-12 04:37:00,60.8,51.3,30.09,ENE,78,0.0,1.0,71,0.00,,,0.00,meteohub,2013-09-12 09:37:00,
2013-09-12 04:42:00,60.6,51.6,30.09,ENE,78,0.0,1.0,72,0.00,,,0.00,meteohub,2013-09-12 09:42:00,
2013-09-12 04:48:00,60.4,51.4,30.09,ENE,78,0.0,0.0,72,0.00,,,0.00,meteohub,2013-09-12 09:48:00,
2013-09-12 04:53:00,60.4,51.8,30.09,ENE,78,0.0,0.0,73,0.00,,,0.00,meteohub,2013-09-12 09:53:00,
2013-09-12 04:58:00,60.3,51.6,30.09,ENE,78,0.0,0.0,73,0.00,,,0.00,meteohub,2013-09-12 09:58:00,
2013-09-12 05:03:00,60.1,51.4,30.09,ENE,78,0.0,0.0,73,0.00,,,0.00,meteohub,2013-09-12 10:03:00,
2013-09-12 05:08:00,59.9,51.3,30.09,ENE,78,0.0,0.0,73,0.00,,,0.00,meteohub,2013-09-12 10:08:00,
2013-09-12 05:13:00,59.7,51.1,30.10,ENE,78,0.0,0.0,73,0.00,,,0.00,meteohub,2013-09-12 10:13:00,
2013-09-12 05:18:00,59.5,50.9,30.09,ENE,78,0.0,0.0,73,0.00,,,0.00,meteohub,2013-09-12 10:18:00,
2013-09-12 05:23:00,59.4,51.1,30.10,ENE,78,0.0,0.0,74,0.00,,,0.00,meteohub,2013-09-12 10:23:00,
2013-09-12 05:28:00,59.2,50.9,30.10,ENE,78,0.0,0.0,74,0.00,,,0.00,meteohub,2013-09-12 10:28:00,
2013-09-12 05:33:00,59.0,50.7,30.10,ENE,78,0.0,0.0,74,0.00,,,0.00,meteohub,2013-09-12 10:33:00,
2013-09-12 05:38:00,59.0,50.7,30.10,ENE,78,0.0,0.0,74,0.00,,,0.00,meteohub,2013-09-12 10:38:00,
2013-09-12 05:43:00,58.6,50.7,30.11,ENE,78,0.0,0.0,75,0.00,,,0.00,meteohub,2013-09-12 10:43:00,
2013-09-12 05:48:00,58.5,50.5,30.11,ENE,78,0.0,0.0,75,0.00,,,0.00,meteohub,2013-09-12 10:48:00,
2013-09-12 05:53:00,58.3,50.7,30.11,ENE,78,0.0,0.0,76,0.00,,,0.00,meteohub,2013-09-12 10:53:00,
2013-09-12 05:58:00,57.9,50.4,30.11,ENE,78,0.0,0.0,76,0.00,,,0.00,meteohub,2013-09-12 10:58:00,
2013-09-12 06:04:00,57.7,50.2,30.11,ENE,78,0.0,0.0,76,0.00,,,0.00,meteohub,2013-09-12 11:04:00,
2013-09-12 06:09:00,57.6,50.4,30.12,ENE,78,0.0,0.0,77,0.00,,,0.00,meteohub,2013-09-12 11:09:00,
2013-09-12 06:14:00,57.6,50.7,30.12,ENE,78,0.0,2.0,78,0.00,,,0.00,meteohub,2013-09-12 11:14:00,
2013-09-12 06:19:00,57.6,51.1,30.11,ENE,78,0.0,2.0,79,0.00,,,0.00,meteohub,2013-09-12 11:19:00,
2013-09-12 06:24:00,57.6,51.1,30.12,ENE,78,0.0,2.0,79,0.00,,,0.00,meteohub,2013-09-12 11:24:00,
2013-09-12 06:29:00,57.6,51.1,30.12,ENE,78,0.0,1.0,79,0.00,,,0.00,meteohub,2013-09-12 11:29:00,
2013-09-12 06:34:00,57.4,50.9,30.12,ENE,78,0.0,1.0,79,0.00,,,0.00,meteohub,2013-09-12 11:34:00,
2013-09-12 06:39:00,57.4,50.9,30.12,ENE,78,0.0,0.0,79,0.00,,,0.00,meteohub,2013-09-12 11:39:00,
2013-09-12 06:44:00,57.4,50.9,30.12,ENE,78,0.0,0.0,79,0.00,,,0.00,meteohub,2013-09-12 11:44:00,
2013-09-12 06:49:00,57.2,51.1,30.12,ENE,78,0.0,0.0,80,0.00,,,0.00,meteohub,2013-09-12 11:49:00,
2013-09-12 06:54:00,57.2,51.1,30.13,ENE,78,0.0,1.0,80,0.00,,,0.00,meteohub,2013-09-12 11:54:00,
2013-09-12 06:59:00,57.0,50.9,30.13,ENE,78,0.0,1.0,80,0.00,,,0.00,meteohub,2013-09-12 11:59:00,
2013-09-12 07:04:00,57.0,50.9,30.13,ENE,78,0.0,1.0,80,0.00,,,0.00,meteohub,2013-09-12 12:04:00,
2013-09-12 07:09:00,57.0,50.9,30.13,ENE,78,0.0,1.0,80,0.00,,,0.00,meteohub,2013-09-12 12:09:00,
2013-09-12 07:14:00,56.8,50.7,30.13,ENE,78,0.0,0.0,80,0.00,,,0.00,meteohub,2013-09-12 12:14:00,
2013-09-12 07:19:00,56.8,50.7,30.14,ENE,78,0.0,0.0,80,0.00,,,0.00,meteohub,2013-09-12 12:19:00,
2013-09-12 07:25:00,56.8,50.7,30.14,ENE,78,0.0,0.0,80,0.00,,,0.00,meteohub,2013-09-12 12:25:00,
2013-09-12 07:30:00,56.8,50.7,30.14,ENE,78,0.0,0.0,80,0.00,,,0.00,meteohub,2013-09-12 12:30:00,
2013-09-12 07:35:00,56.7,50.5,30.14,ENE,78,0.0,0.0,80,0.00,,,0.00,meteohub,2013-09-12 12:35:00,
2013-09-12 07:40:00,56.7,50.9,30.14,ENE,78,0.0,0.0,81,0.00,,,0.00,meteohub,2013-09-12 12:40:00,
2013-09-12 07:45:00,56.7,50.9,30.14,ENE,78,0.0,0.0,81,0.00,,,0.00,meteohub,2013-09-12 12:45:00,
2013-09-12 07:50:00,56.8,51.1,30.14,ENE,78,0.0,1.0,81,0.00,,,0.00,meteohub,2013-09-12 12:50:00,
2013-09-12 07:55:00,56.8,51.1,30.14,ENE,78,0.0,1.0,81,0.00,,,0.00,meteohub,2013-09-12 12:55:00,
2013-09-12 08:00:00,56.8,51.1,30.15,ENE,78,0.0,1.0,81,0.00,,,0.00,meteohub,2013-09-12 13:00:00,
2013-09-12 08:05:00,57.0,51.6,30.15,ENE,78,0.0,1.0,82,0.00,,,0.00,meteohub,2013-09-12 13:05:00,
2013-09-12 08:10:00,57.2,51.8,30.15,ENE,78,0.0,1.0,82,0.00,,,0.00,meteohub,2013-09-12 13:10:00,
2013-09-12 08:15:00,57.4,52.0,30.15,ENE,78,1.0,1.0,82,0.00,,,0.00,meteohub,2013-09-12 13:15:00,
2013-09-12 08:20:00,57.7,52.3,30.15,ENE,78,0.0,3.0,82,0.00,,,0.00,meteohub,2013-09-12 13:20:00,
2013-09-12 08:25:00,57.9,52.5,30.15,ENE,78,0.0,3.0,82,0.00,,,0.00,meteohub,2013-09-12 13:25:00,
2013-09-12 08:30:00,58.3,52.5,30.16,ENE,78,1.0,3.0,81,0.00,,,0.00,meteohub,2013-09-12 13:30:00,
2013-09-12 08:35:00,58.6,52.9,30.16,NE,51,0.0,3.0,81,0.00,,,0.00,meteohub,2013-09-12 13:35:00,
2013-09-12 08:40:00,59.0,53.2,30.16,ENE,62,0.0,3.0,81,0.00,,,0.00,meteohub,2013-09-12 13:40:00,
2013-09-12 08:45:00,59.0,52.9,30.16,NNE,29,0.0,3.0,80,0.00,,,0.00,meteohub,2013-09-12 13:45:00,
2013-09-12 08:51:00,59.2,53.1,30.17,NNE,26,1.0,3.0,80,0.00,,,0.00,meteohub,2013-09-12 13:51:00,
2013-09-12 08:56:00,59.5,53.4,30.17,NE,46,0.0,3.0,80,0.00,,,0.00,meteohub,2013-09-12 13:56:00,
2013-09-12 09:01:00,59.7,53.2,30.17,NE,46,0.0,3.0,79,0.00,,,0.00,meteohub,2013-09-12 14:01:00,
2013-09-12 09:06:00,60.1,53.6,30.17,NE,45,1.0,3.0,79,0.00,,,0.00,meteohub,2013-09-12 14:06:00,
2013-09-12 09:11:00,60.4,53.6,30.17,NE,46,0.0,3.0,78,0.00,,,0.00,meteohub,2013-09-12 14:11:00,
2013-09-12 09:16:00,60.6,53.4,30.17,NE,45,0.0,3.0,77,0.00,,,0.00,meteohub,2013-09-12 14:16:00,
2013-09-12 09:21:00,61.0,53.4,30.17,East,79,0.0,4.0,76,0.00,,,0.00,meteohub,2013-09-12 14:21:00,
2013-09-12 09:26:00,61.2,53.2,30.17,East,79,3.0,4.0,75,0.00,,,0.00,meteohub,2013-09-12 14:26:00,
2013-09-12 09:31:00,61.5,53.2,30.17,ENE,71,0.0,4.0,74,0.00,,,0.00,meteohub,2013-09-12 14:31:00,
2013-09-12 09:36:00,61.9,53.4,30.17,ENE,71,0.0,4.0,74,0.00,,,0.00,meteohub,2013-09-12 14:36:00,
2013-09-12 09:41:00,62.1,53.2,30.17,ENE,69,0.0,4.0,73,0.00,,,0.00,meteohub,2013-09-12 14:41:00,
2013-09-12 09:46:00,62.2,53.4,30.17,ENE,68,0.0,1.0,73,0.00,,,0.00,meteohub,2013-09-12 14:46:00,
2013-09-12 09:51:00,62.4,53.2,30.17,ENE,74,0.0,4.0,72,0.00,,,0.00,meteohub,2013-09-12 14:51:00,
2013-09-12 09:56:00,62.8,53.2,30.17,ENE,76,1.0,4.0,71,0.00,,,0.00,meteohub,2013-09-12 14:56:00,
2013-09-12 10:01:00,63.1,53.6,30.17,ENE,78,0.0,4.0,71,0.00,,,0.00,meteohub,2013-09-12 15:01:00,
2013-09-12 10:07:00,63.3,53.8,30.17,ENE,78,0.0,3.0,71,0.00,,,0.00,meteohub,2013-09-12 15:07:00,
2013-09-12 10:12:00,63.7,54.1,30.17,ENE,72,0.0,3.0,71,0.00,,,0.00,meteohub,2013-09-12 15:12:00,
2013-09-12 10:17:00,63.9,54.0,30.17,ENE,72,2.0,3.0,70,0.00,,,0.00,meteohub,2013-09-12 15:17:00,
2013-09-12 10:22:00,64.0,53.6,30.17,ENE,72,0.0,3.0,69,0.00,,,0.00,meteohub,2013-09-12 15:22:00,
2013-09-12 10:27:00,64.4,54.0,30.17,ENE,72,0.0,3.0,69,0.00,,,0.00,meteohub,2013-09-12 15:27:00,
2013-09-12 10:32:00,64.8,54.3,30.17,East,81,0.0,4.0,69,0.00,,,0.00,meteohub,2013-09-12 15:32:00,
2013-09-12 10:37:00,65.1,54.3,30.17,East,79,0.0,5.0,68,0.00,,,0.00,meteohub,2013-09-12 15:37:00,
2013-09-12 10:42:00,65.5,54.7,30.17,ENE,76,3.0,5.0,68,0.00,,,0.00,meteohub,2013-09-12 15:42:00,
2013-09-12 10:47:00,65.8,55.0,30.17,NNE,30,1.0,5.0,68,0.00,,,0.00,meteohub,2013-09-12 15:47:00,
2013-09-12 10:52:00,66.0,55.2,30.17,NNE,28,0.0,4.0,68,0.00,,,0.00,meteohub,2013-09-12 15:52:00,
2013-09-12 10:57:00,66.0,54.7,30.17,NE,51,1.0,4.0,67,0.00,,,0.00,meteohub,2013-09-12 15:57:00,
2013-09-12 11:02:00,66.2,54.9,30.17,ENE,71,2.0,5.0,67,0.00,,,0.00,meteohub,2013-09-12 16:02:00,
2013-09-12 11:07:00,66.4,55.0,30.17,East,84,0.0,5.0,67,0.00,,,0.00,meteohub,2013-09-12 16:07:00,
2013-09-12 11:12:00,66.6,55.2,30.17,ENE,73,0.0,3.0,67,0.00,,,0.00,meteohub,2013-09-12 16:12:00,
2013-09-12 11:17:00,66.7,55.4,30.17,ENE,78,0.0,3.0,67,0.00,,,0.00,meteohub,2013-09-12 16:17:00,
2013-09-12 11:22:00,66.7,55.0,30.17,East,85,2.0,3.0,66,0.00,,,0.00,meteohub,2013-09-12 16:22:00,
2013-09-12 11:27:00,66.9,55.2,30.17,East,91,3.0,4.0,66,0.00,,,0.00,meteohub,2013-09-12 16:27:00,
2013-09-12 11:32:00,67.3,55.0,30.17,East,88,0.0,5.0,65,0.00,,,0.00,meteohub,2013-09-12 16:32:00,
2013-09-12 11:37:00,67.5,54.9,30.17,East,98,0.0,5.0,64,0.00,,,0.00,meteohub,2013-09-12 16:37:00,
2013-09-12 11:42:00,67.8,54.7,30.17,NNE,33,0.0,4.0,63,0.00,,,0.00,meteohub,2013-09-12 16:42:00,
2013-09-12 11:47:00,68.2,55.6,30.17,NNE,29,0.0,4.0,64,0.00,,,0.00,meteohub,2013-09-12 16:47:00,
2013-09-12 11:52:00,68.5,55.4,30.17,East,80,2.0,3.0,63,0.00,,,0.00,meteohub,2013-09-12 16:52:00,
2013-09-12 11:57:00,68.7,55.2,30.17,ENE,74,0.0,3.0,62,0.00,,,0.00,meteohub,2013-09-12 16:57:00,
2013-09-12 12:02:00,68.7,55.2,30.17,ENE,75,2.0,3.0,62,0.00,,,0.00,meteohub,2013-09-12 17:02:00,
2013-09-12 12:07:00,68.7,54.3,30.17,ENE,73,2.0,3.0,60,0.00,,,0.00,meteohub,2013-09-12 17:07:00,
2013-09-12 12:12:00,69.3,54.3,30.17,NNE,15,1.0,5.0,59,0.00,,,0.00,meteohub,2013-09-12 17:12:00,
2013-09-12 12:17:00,69.4,54.0,30.17,East,84,4.0,5.0,58,0.00,,,0.00,meteohub,2013-09-12 17:17:00,
2013-09-12 12:22:00,69.6,53.8,30.16,East,84,3.0,7.0,57,0.00,,,0.00,meteohub,2013-09-12 17:22:00,
2013-09-12 12:27:00,69.8,54.0,30.16,ENE,69,1.0,7.0,57,0.00,,,0.00,meteohub,2013-09-12 17:27:00,
2013-09-12 12:32:00,70.2,54.1,30.16,East,88,4.0,7.0,57,0.00,,,0.00,meteohub,2013-09-12 17:32:00,
2013-09-12 12:37:00,70.3,54.0,30.16,East,89,0.0,5.0,56,0.00,,,0.00,meteohub,2013-09-12 17:37:00,
2013-09-12 12:42:00,70.5,53.6,30.16,East,89,0.0,5.0,55,0.00,,,0.00,meteohub,2013-09-12 17:42:00,
2013-09-12 12:47:00,70.3,52.9,30.16,ESE,109,1.0,5.0,54,0.00,,,0.00,meteohub,2013-09-12 17:47:00,
2013-09-12 12:52:00,70.3,52.3,30.16,East,82,0.0,6.0,53,0.00,,,0.00,meteohub,2013-09-12 17:52:00,
2013-09-12 12:57:00,70.2,52.7,30.16,East,82,0.0,6.0,54,0.00,,,0.00,meteohub,2013-09-12 17:57:00,
2013-09-12 13:02:00,70.3,52.9,30.16,East,84,2.0,6.0,54,0.00,,,0.00,meteohub,2013-09-12 18:02:00,
2013-09-12 13:07:00,70.9,53.4,30.15,NE,40,0.0,4.0,54,0.00,,,0.00,meteohub,2013-09-12 18:07:00,
2013-09-12 13:12:00,71.1,52.5,30.15,ENE,75,0.0,6.0,52,0.00,,,0.00,meteohub,2013-09-12 18:12:00,
2013-09-12 13:17:00,71.2,52.2,30.16,ENE,73,2.0,6.0,51,0.00,,,0.00,meteohub,2013-09-12 18:17:00,
2013-09-12 13:22:00,71.2,52.2,30.15,NNE,19,0.0,6.0,51,0.00,,,0.00,meteohub,2013-09-12 18:22:00,
2013-09-12 13:27:00,71.2,52.2,30.15,East,84,2.0,6.0,51,0.00,,,0.00,meteohub,2013-09-12 18:27:00,
2013-09-12 13:32:00,72.1,53.1,30.15,East,80,1.0,6.0,51,0.00,,,0.00,meteohub,2013-09-12 18:32:00,
2013-09-12 13:37:00,73.2,51.8,30.15,East,91,1.0,6.0,47,0.00,,,0.00,meteohub,2013-09-12 18:37:00,
2013-09-12 13:42:00,73.9,52.5,30.15,East,80,0.0,5.0,47,0.00,,,0.00,meteohub,2013-09-12 18:42:00,
2013-09-12 13:47:00,74.7,52.0,30.14,ENE,76,0.0,5.0,45,0.00,,,0.00,meteohub,2013-09-12 18:47:00,
2013-09-12 13:52:00,74.3,52.2,30.15,East,85,1.0,5.0,46,0.00,,,0.00,meteohub,2013-09-12 18:52:00,
2013-09-12 13:57:00,73.9,50.7,30.15,ESE,104,1.0,4.0,44,0.00,,,0.00,meteohub,2013-09-12 18:57:00,
2013-09-12 14:02:00,73.8,50.5,30.15,ENE,74,1.0,4.0,44,0.00,,,0.00,meteohub,2013-09-12 19:02:00,
2013-09-12 14:07:00,73.6,50.9,30.15,East,84,1.0,5.0,45,0.00,,,0.00,meteohub,2013-09-12 19:07:00,
2013-09-12 14:12:00,73.6,50.9,30.15,ENE,75,0.0,6.0,45,0.00,,,0.00,meteohub,2013-09-12 19:12:00,
2013-09-12 14:17:00,73.6,50.9,30.15,East,79,2.0,6.0,45,0.00,,,0.00,meteohub,2013-09-12 19:17:00,
2013-09-12 14:22:00,73.4,50.7,30.15,East,79,0.0,6.0,45,0.00,,,0.00,meteohub,2013-09-12 19:22:00,
2013-09-12 14:27:00,74.8,51.4,30.14,East,88,2.0,3.0,44,0.00,,,0.00,meteohub,2013-09-12 19:27:00,
2013-09-12 14:32:00,74.5,51.1,30.14,ENE,69,3.0,3.0,44,0.00,,,0.00,meteohub,2013-09-12 19:32:00,
2013-09-12 14:37:00,73.9,50.0,30.14,East,86,0.0,5.0,43,0.00,,,0.00,meteohub,2013-09-12 19:37:00,
2013-09-12 14:42:00,73.6,50.4,30.14,East,86,0.0,5.0,44,0.00,,,0.00,meteohub,2013-09-12 19:42:00,
2013-09-12 14:47:00,73.6,51.4,30.14,NE,49,1.0,5.0,46,0.00,,,0.00,meteohub,2013-09-12 19:47:00,
2013-09-12 14:52:00,73.9,50.0,30.14,East,87,1.0,6.0,43,0.00,,,0.00,meteohub,2013-09-12 19:52:00,
2013-09-12 14:57:00,74.1,49.6,30.14,East,86,0.0,6.0,42,0.00,,,0.00,meteohub,2013-09-12 19:57:00,
2013-09-12 15:02:00,73.9,50.0,30.14,East,88,0.0,6.0,43,0.00,,,0.00,meteohub,2013-09-12 20:02:00,
2013-09-12 15:07:00,73.6,50.4,30.14,East,84,1.0,6.0,44,0.00,,,0.00,meteohub,2013-09-12 20:07:00,
2013-09-12 15:12:00,73.0,50.4,30.14,ENE,74,0.0,6.0,45,0.00,,,0.00,meteohub,2013-09-12 20:12:00,
2013-09-12 15:17:00,73.2,50.0,30.14,ENE,78,4.0,5.0,44,0.00,,,0.00,meteohub,2013-09-12 20:17:00,
2013-09-12 15:22:00,73.0,49.8,30.14,ENE,67,0.0,5.0,44,0.00,,,0.00,meteohub,2013-09-12 20:22:00,
2013-09-12 15:27:00,74.1,50.9,30.14,ENE,76,0.0,4.0,44,0.00,,,0.00,meteohub,2013-09-12 20:27:00,
2013-09-12 15:32:00,75.7,50.4,30.14,NE,34,0.0,4.0,41,0.00,,,0.00,meteohub,2013-09-12 20:32:00,
2013-09-12 15:37:00,75.9,49.8,30.14,ESE,107,1.0,4.0,40,0.00,,,0.00,meteohub,2013-09-12 20:37:00,
2013-09-12 15:42:00,75.0,49.1,30.14,East,87,1.0,4.0,40,0.00,,,0.00,meteohub,2013-09-12 20:42:00,
2013-09-12 15:47:00,74.3,49.1,30.14,ENE,69,0.0,4.0,41,0.00,,,0.00,meteohub,2013-09-12 20:47:00,
2013-09-12 15:52:00,74.7,50.0,30.14,ENE,74,0.0,4.0,42,0.00,,,0.00,meteohub,2013-09-12 20:52:00,
2013-09-12 15:57:00,75.2,49.8,30.14,East,88,0.0,4.0,41,0.00,,,0.00,meteohub,2013-09-12 20:57:00,
2013-09-12 16:02:00,75.0,49.6,30.14,East,86,1.0,7.0,41,0.00,,,0.00,meteohub,2013-09-12 21:02:00,
2013-09-12 16:07:00,74.7,49.5,30.14,East,82,0.0,7.0,41,0.00,,,0.00,meteohub,2013-09-12 21:07:00,
2013-09-12 16:12:00,73.6,49.6,30.14,East,82,0.0,7.0,43,0.00,,,0.00,meteohub,2013-09-12 21:12:00,
2013-09-12 16:17:00,73.8,49.8,30.13,East,83,0.0,4.0,43,0.00,,,0.00,meteohub,2013-09-12 21:17:00,
2013-09-12 16:22:00,74.3,50.4,30.13,ENE,76,2.0,4.0,43,0.00,,,0.00,meteohub,2013-09-12 21:22:00,
2013-09-12 16:27:00,74.1,50.2,30.14,ENE,72,0.0,6.0,43,0.00,,,0.00,meteohub,2013-09-12 21:27:00,
2013-09-12 16:32:00,73.8,50.5,30.14,East,82,0.0,6.0,44,0.00,,,0.00,meteohub,2013-09-12 21:32:00,
2013-09-12 16:37:00,73.2,49.5,30.14,East,85,0.0,6.0,43,0.00,,,0.00,meteohub,2013-09-12 21:37:00,
2013-09-12 16:40:00,73.0,49.8,30.14,East,79,1.0,3.0,44,0.00,,,0.00,meteohub,2013-09-12 21:40:00,
2013-09-12 16:45:00,73.0,49.3,30.14,East,79,1.0,3.0,43,0.00,,,0.00,meteohub,2013-09-12 21:45:00,
2013-09-12 16:50:00,72.9,49.1,30.14,East,86,0.0,3.0,43,0.00,,,0.00,meteohub,2013-09-12 21:50:00,
2013-09-12 16:55:00,72.7,49.5,30.13,East,80,0.0,4.0,44,0.00,,,0.00,meteohub,2013-09-12 21:55:00,
2013-09-12 17:00:00,72.3,49.1,30.14,East,81,0.0,4.0,44,0.00,,,0.00,meteohub,2013-09-12 22:00:00,
2013-09-12 17:05:00,72.1,48.4,30.13,East,84,0.0,6.0,43,0.00,,,0.00,meteohub,2013-09-12 22:05:00,
2013-09-12 17:10:00,72.0,48.2,30.14,ENE,68,2.0,6.0,43,0.00,,,0.00,meteohub,2013-09-12 22:10:00,
2013-09-12 17:15:00,71.6,48.6,30.14,East,82,0.0,5.0,44,0.00,,,0.00,meteohub,2013-09-12 22:15:00,
2013-09-12 17:20:00,71.4,48.4,30.14,ENE,76,1.0,4.0,44,0.00,,,0.00,meteohub,2013-09-12 22:20:00,
2013-09-12 17:25:00,71.2,48.2,30.14,ENE,71,3.0,7.0,44,0.00,,,0.00,meteohub,2013-09-12 22:25:00,
2013-09-12 17:31:00,71.2,48.2,30.14,ENE,62,0.0,7.0,44,0.00,,,0.00,meteohub,2013-09-12 22:31:00,
2013-09-12 17:36:00,71.2,48.2,30.14,ENE,61,0.0,7.0,44,0.00,,,0.00,meteohub,2013-09-12 22:36:00,
2013-09-12 17:41:00,71.2,48.7,30.14,ENE,62,0.0,3.0,45,0.00,,,0.00,meteohub,2013-09-12 22:41:00,
2013-09-12 17:46:00,71.2,48.7,30.14,ENE,76,1.0,3.0,45,0.00,,,0.00,meteohub,2013-09-12 22:46:00,
2013-09-12 17:51:00,71.1,48.6,30.14,East,82,0.0,4.0,45,0.00,,,0.00,meteohub,2013-09-12 22:51:00,
2013-09-12 17:56:00,71.1,48.6,30.14,East,82,0.0,4.0,45,0.00,,,0.00,meteohub,2013-09-12 22:56:00,
2013-09-12 18:01:00,70.9,48.6,30.14,NNE,32,0.0,4.0,45,0.00,,,0.00,meteohub,2013-09-12 23:01:00,
2013-09-12 18:06:00,70.7,47.7,30.14,ENE,66,3.0,3.0,44,0.00,,,0.00,meteohub,2013-09-12 23:06:00,
2013-09-12 18:11:00,70.5,48.2,30.14,East,86,0.0,4.0,45,0.00,,,0.00,meteohub,2013-09-12 23:11:00,
2013-09-12 18:16:00,70.5,48.2,30.14,East,89,0.0,4.0,45,0.00,,,0.00,meteohub,2013-09-12 23:16:00,
2013-09-12 18:21:00,70.5,48.7,30.14,East,86,2.0,4.0,46,0.00,,,0.00,meteohub,2013-09-12 23:21:00,
2013-09-12 18:26:00,70.5,48.7,30.14,East,86,0.0,4.0,46,0.00,,,0.00,meteohub,2013-09-12 23:26:00,
2013-09-12 18:31:00,70.3,48.6,30.14,East,82,1.0,4.0,46,0.00,,,0.00,meteohub,2013-09-12 23:31:00,
2013-09-12 18:36:00,70.3,48.0,30.15,East,82,0.0,4.0,45,0.00,,,0.00,meteohub,2013-09-12 23:36:00,
2013-09-12 18:42:00,70.2,48.4,30.15,East,82,0.0,4.0,46,0.00,,,0.00,meteohub,2013-09-12 23:42:00,
2013-09-12 18:47:00,70.0,48.2,30.15,East,81,1.0,4.0,46,0.00,,,0.00,meteohub,2013-09-12 23:47:00,
2013-09-12 18:52:00,69.6,47.8,30.15,East,81,1.0,3.0,46,0.00,,,0.00,meteohub,2013-09-12 23:52:00,
2013-09-12 18:57:00,69.4,47.8,30.15,East,81,0.0,3.0,46,0.00,,,0.00,meteohub,2013-09-12 23:57:00,
2013-09-12 19:02:00,69.3,47.7,30.15,ENE,76,0.0,2.0,46,0.00,,,0.00,meteohub,2013-09-13 00:02:00,
2013-09-12 19:07:00,69.1,47.5,30.15,East,83,0.0,3.0,46,0.00,,,0.00,meteohub,2013-09-13 00:07:00,
2013-09-12 19:12:00,68.7,47.1,30.15,East,83,0.0,4.0,46,0.00,,,0.00,meteohub,2013-09-13 00:12:00,
2013-09-12 19:17:00,68.5,47.5,30.15,East,83,1.0,4.0,47,0.00,,,0.00,meteohub,2013-09-13 00:17:00,
2013-09-12 19:22:00,68.4,47.8,30.16,East,83,0.0,4.0,48,0.00,,,0.00,meteohub,2013-09-13 00:22:00,
2013-09-12 19:27:00,68.4,47.3,30.16,East,83,0.0,3.0,47,0.00,,,0.00,meteohub,2013-09-13 00:27:00,
2013-09-12 19:32:00,68.0,46.9,30.16,East,82,0.0,3.0,47,0.00,,,0.00,meteohub,2013-09-13 00:32:00,
2013-09-12 19:37:00,67.8,47.5,30.16,East,84,0.0,3.0,48,0.00,,,0.00,meteohub,2013-09-13 00:37:00,
2013-09-12 19:42:00,67.6,47.8,30.16,East,84,1.0,3.0,49,0.00,,,0.00,meteohub,2013-09-13 00:42:00,
2013-09-12 19:47:00,67.5,47.7,30.16,East,84,0.0,3.0,49,0.00,,,0.00,meteohub,2013-09-13 00:47:00,
2013-09-12 19:52:00,67.3,47.5,30.17,East,84,0.0,3.0,49,0.00,,,0.00,meteohub,2013-09-13 00:52:00,
2013-09-12 19:57:00,66.9,47.1,30.17,East,84,0.0,3.0,49,0.00,,,0.00,meteohub,2013-09-13 00:57:00,
2013-09-12 20:02:00,66.9,47.1,30.17,ENE,67,0.0,3.0,49,0.00,,,0.00,meteohub,2013-09-13 01:02:00,
2013-09-12 20:07:00,66.7,47.5,30.17,ENE,67,0.0,3.0,50,0.00,,,0.00,meteohub,2013-09-13 01:07:00,
2013-09-12 20:12:00,66.6,47.3,30.17,ENE,67,0.0,3.0,50,0.00,,,0.00,meteohub,2013-09-13 01:12:00,
2013-09-12 20:17:00,66.6,47.8,30.17,ENE,67,0.0,1.0,51,0.00,,,0.00,meteohub,2013-09-13 01:17:00,
2013-09-12 20:22:00,66.4,48.2,30.17,ENE,67,1.0,1.0,52,0.00,,,0.00,meteohub,2013-09-13 01:22:00,
2013-09-12 20:27:00,66.0,47.8,30.18,ENE,67,0.0,1.0,52,0.00,,,0.00,meteohub,2013-09-13 01:27:00,
2013-09-12 20:32:00,65.8,47.7,30.18,ENE,67,0.0,2.0,52,0.00,,,0.00,meteohub,2013-09-13 01:32:00,
2013-09-12 20:37:00,65.8,47.7,30.18,ENE,67,0.0,2.0,52,0.00,,,0.00,meteohub,2013-09-13 01:37:00,
2013-09-12 20:42:00,65.7,48.0,30.18,ENE,67,0.0,1.0,53,0.00,,,0.00,meteohub,2013-09-13 01:42:00,
2013-09-12 20:47:00,65.5,47.8,30.18,ENE,67,0.0,1.0,53,0.00,,,0.00,meteohub,2013-09-13 01:47:00,
2013-09-12 20:52:00,65.3,47.7,30.18,ENE,67,0.0,1.0,53,0.00,,,0.00,meteohub,2013-09-13 01:52:00,
2013-09-12 20:57:00,65.1,47.5,30.18,ENE,67,0.0,1.0,53,0.00,,,0.00,meteohub,2013-09-13 01:57:00,
2013-09-12 21:02:00,64.9,47.5,30.19,ENE,67,0.0,1.0,53,0.00,,,0.00,meteohub,2013-09-13 02:02:00,
2013-09-12 21:07:00,64.8,47.7,30.19,ENE,67,0.0,1.0,54,0.00,,,0.00,meteohub,2013-09-13 02:07:00,
2013-09-12 21:12:00,64.6,47.5,30.19,ENE,67,0.0,1.0,54,0.00,,,0.00,meteohub,2013-09-13 02:12:00,
2013-09-12 21:17:00,64.4,47.5,30.18,ENE,67,0.0,1.0,54,0.00,,,0.00,meteohub,2013-09-13 02:17:00,
2013-09-12 21:22:00,64.2,47.3,30.19,ENE,67,0.0,0.0,54,0.00,,,0.00,meteohub,2013-09-13 02:22:00,
2013-09-12 21:27:00,64.0,47.1,30.19,ENE,67,0.0,0.0,54,0.00,,,0.00,meteohub,2013-09-13 02:27:00,
2013-09-12 21:32:00,64.0,47.1,30.19,ENE,67,0.0,1.0,54,0.00,,,0.00,meteohub,2013-09-13 02:32:00,
2013-09-12 21:37:00,63.9,47.3,30.19,ENE,67,0.0,1.0,55,0.00,,,0.00,meteohub,2013-09-13 02:37:00,
2013-09-12 21:42:00,63.7,47.3,30.19,ENE,67,0.0,1.0,55,0.00,,,0.00,meteohub,2013-09-13 02:42:00,
2013-09-12 21:47:00,63.5,47.1,30.19,ENE,67,0.0,0.0,55,0.00,,,0.00,meteohub,2013-09-13 02:47:00,
2013-09-12 21:52:00,63.3,47.3,30.19,ENE,67,0.0,0.0,56,0.00,,,0.00,meteohub,2013-09-13 02:52:00,
2013-09-12 21:57:00,63.1,47.1,30.19,ENE,67,0.0,0.0,56,0.00,,,0.00,meteohub,2013-09-13 02:57:00,
2013-09-12 22:02:00,63.0,46.9,30.19,ENE,67,0.0,0.0,56,0.00,,,0.00,meteohub,2013-09-13 03:02:00,
2013-09-12 22:07:00,62.8,47.3,30.19,ENE,67,0.0,0.0,57,0.00,,,0.00,meteohub,2013-09-13 03:07:00,
2013-09-12 22:12:00,62.4,46.9,30.19,ENE,67,0.0,0.0,57,0.00,,,0.00,meteohub,2013-09-13 03:12:00,
2013-09-12 22:18:00,62.2,46.8,30.19,ENE,67,0.0,0.0,57,0.00,,,0.00,meteohub,2013-09-13 03:18:00,
2013-09-12 22:23:00,62.1,47.1,30.19,ENE,67,0.0,0.0,58,0.00,,,0.00,meteohub,2013-09-13 03:23:00,
2013-09-12 22:28:00,61.7,46.8,30.19,ENE,67,0.0,0.0,58,0.00,,,0.00,meteohub,2013-09-13 03:28:00,
2013-09-12 22:33:00,61.3,46.9,30.20,ENE,67,0.0,0.0,59,0.00,,,0.00,meteohub,2013-09-13 03:33:00,
2013-09-12 22:38:00,61.2,46.8,30.20,ENE,67,0.0,0.0,59,0.00,,,0.00,meteohub,2013-09-13 03:38:00,
2013-09-12 22:43:00,60.8,46.8,30.20,ENE,67,0.0,0.0,60,0.00,,,0.00,meteohub,2013-09-13 03:43:00,
2013-09-12 22:48:00,60.4,46.9,30.20,ENE,67,0.0,0.0,61,0.00,,,0.00,meteohub,2013-09-13 03:48:00,
2013-09-12 22:53:00,60.3,46.8,30.20,ENE,67,0.0,0.0,61,0.00,,,0.00,meteohub,2013-09-13 03:53:00,
2013-09-12 22:58:00,60.1,46.6,30.20,ENE,67,0.0,0.0,61,0.00,,,0.00,meteohub,2013-09-13 03:58:00,
2013-09-12 23:01:00,59.9,46.4,30.20,ENE,67,0.0,0.0,61,0.00,,,0.00,meteohub,2013-09-13 04:01:00,
2013-09-12 23:02:00,59.9,46.8,30.20,ENE,67,0.0,0.0,62,0.00,,,0.00,meteohub,2013-09-13 04:02:00,
2013-09-12 23:07:00,59.5,46.6,30.20,ENE,67,0.0,0.0,62,0.00,,,0.00,meteohub,2013-09-13 04:07:00,
2013-09-12 23:09:00,59.5,46.6,30.20,ENE,67,0.0,0.0,62,0.00,,,0.00,meteohub,2013-09-13 04:09:00,
2013-09-12 23:14:00,59.4,46.8,30.20,ENE,67,0.0,0.0,63,0.00,,,0.00,meteohub,2013-09-13 04:14:00,
2013-09-12 23:15:00,59.2,46.6,30.20,ENE,67,0.0,0.0,63,0.00,,,0.00,meteohub,2013-09-13 04:15:00,
2013-09-12 23:20:00,59.0,46.4,30.20,ENE,67,0.0,0.0,63,0.00,,,0.00,meteohub,2013-09-13 04:20:00,
2013-09-12 23:25:00,59.0,46.8,30.20,ENE,67,0.0,0.0,64,0.00,,,0.00,meteohub,2013-09-13 04:25:00,
2013-09-12 23:30:00,58.8,46.6,30.20,ENE,67,0.0,0.0,64,0.00,,,0.00,meteohub,2013-09-13 04:30:00,
2013-09-12 23:36:00,58.6,46.6,30.20,ENE,67,0.0,0.0,64,0.00,,,0.00,meteohub,2013-09-13 04:36:00,
2013-09-12 23:41:00,58.5,46.8,30.20,ENE,67,0.0,0.0,65,0.00,,,0.00,meteohub,2013-09-13 04:41:00,
2013-09-12 23:46:00,58.1,46.4,30.21,ENE,67,0.0,0.0,65,0.00,,,0.00,meteohub,2013-09-13 04:46:00,
2013-09-12 23:51:00,57.9,46.2,30.21,ENE,67,0.0,0.0,65,0.00,,,0.00,meteohub,2013-09-13 04:51:00,
2013-09-12 23:56:00,57.7,46.4,30.20,ENE,67,0.0,0.0,66,0.00,,,0.00,meteohub,2013-09-13 04:56:00,